EW6420 Weather Reports


time (UTC)temp
C
wind
direction
speed
KPH
gust
KPH
rain 1hr
cm
rain 24hr
cm
rain mn
cm
humidity
%
barometer
mb
20260507143003 9 25 0.0 0.0 0.00 0.00 0.00 80 1020.4
20260507140006 9 25 0.0 0.0 0.00 0.00 0.00 80 1020.3
20260507134502 9 25 0.0 0.0 0.00 0.00 0.00 81 1020.2
20260507133005 8 25 0.0 0.0 0.00 0.00 0.00 82 1020.1
20260507131503 8 25 0.0 0.0 0.00 0.00 0.00 82 1020.0
20260507130005 8 25 0.0 0.0 0.00 0.00 0.00 81 1020.1
20260507124502 9 25 0.0 0.0 0.00 0.00 0.00 81 1020.1
20260507123002 9 25 0.0 0.0 0.00 0.00 0.00 81 1020.2
20260507121501 9 25 0.0 0.0 0.00 0.00 0.00 80 1020.2
20260507120002 9 25 0.0 0.0 0.00 0.00 0.00 79 1020.4
20260507114501 10 25 0.0 0.0 0.00 0.00 0.00 78 1020.6
20260507113002 10 25 0.0 0.0 0.00 0.00 0.00 77 1020.6
20260507110001 10 25 0.0 0.0 0.00 0.00 0.00 77 1020.7
20260507104502 10 25 0.0 0.0 0.00 0.00 0.00 76 1020.6
20260507103002 10 25 0.0 0.0 0.00 0.00 0.00 76 1020.7
20260507101502 10 25 0.0 0.0 0.00 0.00 0.00 76 1020.7
20260507100002 10 25 0.0 3.2 0.00 0.00 0.00 76 1020.7
20260507093002 10 25 0.0 0.0 0.00 0.00 0.00 77 1020.6
20260507091502 10 25 0.0 0.0 0.00 0.00 0.00 77 1020.6
20260507090002 11 25 0.0 0.0 0.00 0.00 0.00 76 1020.7
20260507084501 11 25 0.0 0.0 0.00 0.00 0.00 76 1020.7
20260507083002 11 25 0.0 0.0 0.00 0.00 0.00 76 1020.7
20260507081501 11 25 0.0 0.0 0.00 0.00 0.00 77 1020.7
20260507080005 11 25 0.0 0.0 0.00 0.00 0.00 78 1020.8
20260507070009 11 25 0.0 0.0 0.00 0.00 0.00 77 1020.7
20260507064504 11 25 0.0 0.0 0.00 0.00 0.00 78 1020.6
20260507063005 11 25 0.0 0.0 0.00 0.00 0.00 78 1020.6
20260507060005 12 25 0.0 0.0 0.00 0.00 0.00 78 1020.7
20260507054504 12 25 0.0 0.0 0.00 0.00 0.00 77 1020.7
20260507053005 12 25 0.0 0.0 0.00 0.00 0.00 77 1020.7
20260507051506 12 25 0.0 0.0 0.00 0.00 0.00 76 1020.7
20260507050006 12 25 0.0 0.0 0.00 0.00 0.00 77 1020.6
20260507043004 12 25 0.0 0.0 0.00 0.00 0.00 77 1020.6
20260507041503 13 25 0.0 0.0 0.00 0.00 0.00 76 1020.6
20260507040004 13 25 0.0 0.0 0.00 0.00 0.00 75 1020.4
20260507034504 13 25 0.0 0.0 0.00 0.00 0.00 75 1020.3
20260507033003 13 25 0.0 0.0 0.00 0.00 0.00 74 1020.2
20260507031504 13 25 0.0 0.0 0.00 0.00 0.00 73 1020.1
20260507030007 13 25 0.0 0.0 0.00 0.00 0.00 73 1020.0
20260507024503 13 25 0.0 0.0 0.00 0.00 0.00 72 1019.9
20260507023004 14 25 0.0 0.0 0.00 0.00 0.00 73 1019.8
20260507021504 14 25 0.0 0.0 0.00 0.00 0.00 71 1019.8
20260507020005 14 25 0.0 0.0 0.00 0.00 0.00 71 1019.8
20260507014504 14 25 0.0 3.2 0.00 0.00 0.00 70 1019.8
20260507013005 15 25 0.0 3.2 0.00 0.00 0.00 70 1019.7
20260507011504 15 25 0.0 1.6 0.00 0.00 0.00 70 1019.7
20260507010003 15 25 0.0 3.2 0.00 0.00 0.00 70 1019.8
20260507004502 15 16 0.0 3.2 0.00 0.00 0.00 68 1019.8
20260507001505 16 67 0.0 3.2 0.00 0.00 0.00 68 1019.9
20260507000005 16 72 0.0 3.2 0.00 0.00 0.00 67 1019.8
20260506234503 16 83 0.0 0.0 0.00 0.00 0.00 68 1019.8
20260506231503 15 38 0.0 0.0 0.00 0.00 0.00 69 1019.8
20260506224504 15 104 0.0 0.0 0.00 0.00 0.00 70 1019.9
20260506223006 15 104 0.0 3.2 0.00 0.00 0.00 71 1020.0
20260506221504 14 104 0.0 3.2 0.00 0.00 0.00 72 1020.2
20260506220005 14 104 0.0 3.2 0.00 0.00 0.00 72 1020.1
20260506213002 13 104 0.0 0.0 0.00 0.00 0.00 75 1020.3
20260506211502 13 104 0.0 3.2 0.00 0.00 0.00 74 1020.3
20260506210005 13 106 0.0 3.2 0.00 0.00 0.00 75 1020.3
20260506204504 13 106 0.0 3.2 0.00 0.00 0.00 76 1020.2
20260506203005 13 117 0.0 3.2 0.00 0.00 0.00 77 1020.1
20260506201506 13 195 0.0 3.2 0.00 0.00 0.00 79 1020.0
20260506200005 13 195 0.0 3.2 0.00 0.00 0.00 80 1020.1
20260506193002 12 152 0.0 1.6 0.00 0.00 0.00 83 1020.0
20260506191503 12 153 0.0 3.2 0.00 0.00 0.00 83 1020.0
20260506184504 12 48 0.0 3.2 0.00 0.00 0.00 83 1020.1
20260506181503 12 58 0.0 3.2 0.00 0.00 0.00 84 1019.9
20260506180003 12 31 0.0 0.0 0.00 0.00 0.00 84 1019.9
20260506174502 12 31 0.0 1.6 0.00 0.00 0.00 85 1019.8
20260506173002 11 31 0.0 3.2 0.00 0.00 0.00 85 1019.9
20260506171502 11 79 0.0 3.2 0.00 0.00 0.00 85 1019.8
20260506164502 11 148 0.0 3.2 0.00 0.00 0.00 86 1019.5
20260506163002 11 148 0.0 3.2 0.00 0.00 0.00 87 1019.2
20260506161503 11 148 0.0 3.2 0.00 0.00 0.00 87 1019.5
20260506160003 11 127 0.0 0.0 0.00 0.00 0.00 88 1019.5
20260506154503 11 127 0.0 3.2 0.00 0.00 0.00 88 1019.3
20260506153002 11 127 0.0 3.2 0.00 0.00 0.00 88 1019.4
20260506151503 11 127 0.0 0.0 0.00 0.00 0.00 89 1019.5
20260506150005 11 127 0.0 1.6 0.00 0.00 0.00 89 1019.4
20260506144502 11 127 0.0 3.2 0.00 0.00 0.00 89 1019.2